QPF
0.00 0.00 0.00 0.00 0.00 0.00 0.00 0.00 0.00 0.00 0.00 0.00 0.00 0.00 0.00 0.00 0.01 0.01 0.01 0.01 0.01 0.03 0.04 0.09 0.12 0.14 0.19 0.21 0.23 0.21 0.20 0.19 0.23 0.24 0.21 0.15 0.12 0.11 0.10 0.08 0.07 0.05 0.04 0.05
0.00 0.00 0.00 0.00 0.00 0.00 0.00 0.00 0.00 0.00 0.00 0.00 0.00 0.00 0.00 0.00 0.00 0.01 0.01 0.01 0.02 0.03 0.04 0.07 0.11 0.14 0.21 0.24 0.28 0.28 0.25 0.23 0.21 0.18 0.17 0.15 0.13 0.14 0.13 0.09 0.07 0.05 0.04 0.04
0.00 0.00 0.00 0.00 0.00 0.00 0.00 0.00 0.00 0.00 0.00 0.00 0.00 0.00 0.00 0.00 0.01 0.01 0.01 0.02 0.03 0.03 0.04 0.06 0.08 0.11 0.20 0.16 0.15 0.20 0.24 0.25 0.22 0.20 0.18 0.20 0.20 0.18 0.14 0.09 0.05 0.05 0.05 0.05
0.00 0.00 0.00 0.00 0.00 0.00 0.00 0.00 0.00 0.00 0.00 0.00 0.00 0.00 0.00 0.00 0.01 0.01 0.01 0.02 0.02 0.02 0.04 0.06 0.08 0.08 0.11 0.11 0.10 0.12 0.19 0.21 0.22 0.21 0.17 0.14 0.14 0.12 0.08 0.07 0.06 0.07 0.06 0.05
0.00 0.00 0.00 0.00 0.00 0.00 0.00 0.00 0.00 0.00 0.00 0.00 0.00 0.00 0.00 0.00 0.00 0.01 0.01 0.01 0.01 0.03 0.05 0.07 0.08 0.06 0.07 0.08 0.09 0.13 0.15 0.20 0.24 0.21 0.17 0.14 0.13 0.11 0.11 0.11 0.10 0.08 0.07 0.06
0.00 0.00 0.00 0.00 0.00 0.00 0.00 0.00 0.00 0.00 0.00 0.00 0.00 0.00 0.00 0.00 0.00 0.00 0.00 0.00 0.01 0.02 0.03 0.05 0.05 0.06 0.07 0.09 0.09 0.13 0.12 0.15 0.22 0.22 0.16 0.14 0.13 0.10 0.10 0.11 0.11 0.09 0.08 0.07
0.00 0.00 0.00 0.00 0.00 0.00 0.00 0.00 0.00 0.00 0.00 0.00 0.00 0.00 0.00 0.00 0.00 0.00 0.00 0.00 0.00 0.01 0.03 0.04 0.03 0.05 0.06 0.05 0.07 0.09 0.10 0.14 0.18 0.19 0.15 0.12 0.10 0.07 0.06 0.07 0.08 0.08 0.07 0.06
0.00 0.00 0.00 0.00 0.00 0.00 0.00 0.00 0.00 0.00 0.00 0.00 0.00 0.00 0.00 0.00 0.00 0.00 0.00 0.00 0.00 0.01 0.02 0.02 0.03 0.03 0.03 0.03 0.04 0.06 0.08 0.11 0.15 0.14 0.13 0.11 0.08 0.05 0.04 0.04 0.04 0.06 0.06 0.05
0.00 0.00 0.00 0.00 0.00 0.00 0.00 0.00 0.00 0.00 0.00 0.00 0.00 0.00 0.00 0.00 0.00 0.00 0.00 0.00 0.00 0.01 0.01 0.01 0.02 0.02 0.02 0.01 0.02 0.03 0.05 0.07 0.12 0.12 0.12 0.11 0.08 0.06 0.04 0.04 0.05 0.05 0.06 0.07
0.00 0.00 0.00 0.00 0.00 0.00 0.00 0.00 0.00 0.00 0.00 0.00 0.00 0.00 0.00 0.00 0.00 0.00 0.00 0.01 0.01 0.01 0.01 0.01 0.01 0.02 0.02 0.01 0.01 0.02 0.04 0.06 0.08 0.10 0.09 0.08 0.07 0.07 0.06 0.05 0.05 0.05 0.06 0.06
0.00 0.00 0.00 0.00 0.00 0.00 0.00 0.00 0.00 0.00 0.00 0.00 0.00 0.00 0.00 0.00 0.00 0.00 0.00 0.01 0.01 0.01 0.01 0.01 0.02 0.03 0.02 0.02 0.02 0.03 0.04 0.05 0.06 0.07 0.06 0.06 0.07 0.08 0.07 0.06 0.05 0.05 0.06 0.06
0.00 0.00 0.00 0.00 0.00 0.00 0.00 0.00 0.00 0.00 0.00 0.00 0.00 0.00 0.00 0.00 0.00 0.00 0.00 0.01 0.01 0.01 0.01 0.01 0.02 0.03 0.03 0.03 0.03 0.02 0.03 0.04 0.04 0.05 0.05 0.05 0.07 0.09 0.07 0.06 0.06 0.06 0.05 0.05
0.00 0.00 0.00 0.00 0.00 0.00 0.00 0.00 0.00 0.00 0.00 0.00 0.00 0.00 0.00 0.00 0.00 0.00 0.00 0.00 0.00 0.01 0.01 0.01 0.03 0.04 0.04 0.05 0.03 0.03 0.04 0.06 0.05 0.05 0.06 0.07 0.08 0.08 0.06 0.05 0.07 0.07 0.06 0.06
0.00 0.00 0.00 0.00 0.00 0.00 0.00 0.00 0.00 0.00 0.00 0.00 0.00 0.00 0.00 0.00 0.00 0.00 0.00 0.00 0.00 0.01 0.01 0.01 0.03 0.03 0.03 0.03 0.03 0.04 0.06 0.10 0.11 0.10 0.10 0.11 0.12 0.11 0.10 0.09 0.09 0.09 0.09 0.08
0.00 0.00 0.00 0.00 0.00 0.00 0.00 0.00 0.00 0.00 0.00 0.00 0.00 0.00 0.00 0.00 0.00 0.00 0.00 0.01 0.01 0.01 0.01 0.01 0.02 0.02 0.02 0.03 0.03 0.02 0.04 0.07 0.12 0.15 0.16 0.16 0.17 0.17 0.13 0.11 0.11 0.12 0.13 0.13
0.00 0.00 0.00 0.00 0.00 0.00 0.00 0.00 0.00 0.00 0.00 0.00 0.00 0.00 0.00 0.00 0.00 0.00 0.00 0.00 0.01 0.01 0.02 0.02 0.01 0.02 0.02 0.03 0.03 0.02 0.02 0.03 0.05 0.08 0.08 0.09 0.11 0.14 0.10 0.09 0.09 0.10 0.11 0.12
0.00 0.00 0.00 0.00 0.00 0.00 0.00 0.00 0.00 0.00 0.00 0.00 0.00 0.00 0.00 0.00 0.00 0.00 0.00 0.01 0.01 0.01 0.01 0.01 0.01 0.02 0.03 0.02 0.02 0.02 0.02 0.03 0.03 0.04 0.05 0.06 0.09 0.13 0.12 0.10 0.08 0.09 0.10 0.09
0.00 0.00 0.00 0.00 0.00 0.00 0.00 0.00 0.00 0.00 0.00 0.00 0.00 0.00 0.00 0.00 0.01 0.01 0.02 0.02 0.02 0.02 0.02 0.02 0.02 0.03 0.06 0.04 0.03 0.03 0.04 0.05 0.06 0.07 0.07 0.06 0.07 0.08 0.11 0.12 0.10 0.11 0.14 0.13
0.00 0.00 0.00 0.00 0.00 0.00 0.01 0.00 0.00 0.00 0.00 0.00 0.00 0.00 0.01 0.01 0.02 0.02 0.02 0.02 0.02 0.02 0.02 0.03 0.03 0.04 0.07 0.09 0.06 0.08 0.11 0.11 0.10 0.09 0.08 0.10 0.10 0.10 0.11 0.11 0.11 0.10 0.13 0.13
0.00 0.00 0.00 0.00 0.00 0.00 0.00 0.00 0.00 0.00 0.01 0.01 0.01 0.01 0.01 0.02 0.03 0.02 0.03 0.03 0.03 0.04 0.04 0.05 0.06 0.06 0.10 0.12 0.11 0.11 0.12 0.13 0.12 0.10 0.10 0.12 0.15 0.14 0.14 0.14 0.13 0.13 0.14 0.13
0.00 0.00 0.00 0.00 0.00 0.00 0.00 0.00 0.00 0.01 0.01 0.01 0.02 0.02 0.02 0.02 0.03 0.03 0.03 0.03 0.04 0.05 0.07 0.08 0.09 0.10 0.11 0.11 0.11 0.11 0.11 0.12 0.13 0.14 0.15 0.19 0.21 0.24 0.21 0.20 0.18 0.17 0.17 0.15
0.01 0.00 0.00 0.00 0.00 0.00 0.00 0.00 0.00 0.01 0.01 0.02 0.03 0.03 0.03 0.02 0.02 0.02 0.02 0.03 0.04 0.04 0.07 0.10 0.13 0.12 0.11 0.12 0.12 0.12 0.14 0.15 0.16 0.16 0.18 0.23 0.23 0.25 0.28 0.25 0.22 0.18 0.14 0.13
0.01 0.01 0.01 0.01 0.01 0.01 0.00 0.00 0.01 0.01 0.01 0.02 0.03 0.03 0.03 0.02 0.02 0.01 0.02 0.02 0.03 0.04 0.06 0.08 0.13 0.15 0.15 0.16 0.16 0.15 0.16 0.17 0.16 0.19 0.22 0.23 0.23 0.22 0.24 0.22 0.20 0.15 0.12 0.11
0.01 0.01 0.01 0.02 0.02 0.03 0.02 0.03 0.03 0.03 0.03 0.02 0.02 0.02 0.03 0.02 0.02 0.01 0.02 0.03 0.05 0.08 0.08 0.06 0.08 0.12 0.17 0.19 0.21 0.21 0.18 0.18 0.18 0.20 0.20 0.20 0.23 0.20 0.19 0.19 0.19 0.16 0.13 0.11
0.01 0.01 0.01 0.02 0.02 0.03 0.04 0.04 0.04 0.03 0.02 0.02 0.02 0.02 0.02 0.02 0.02 0.01 0.02 0.05 0.05 0.09 0.10 0.10 0.10 0.11 0.14 0.18 0.23 0.25 0.21 0.18 0.19 0.19 0.16 0.15 0.17 0.18 0.17 0.18 0.19 0.18 0.15 0.13
0.01 0.01 0.02 0.02 0.02 0.02 0.03 0.04 0.04 0.03 0.02 0.02 0.01 0.01 0.01 0.01 0.02 0.02 0.02 0.04 0.06 0.08 0.09 0.09 0.10 0.11 0.14 0.17 0.22 0.23 0.19 0.17 0.17 0.19 0.16 0.14 0.14 0.15 0.15 0.16 0.17 0.17 0.14 0.12
MSLP
1011.01 1011.74 1012.26 1012.59 1012.75 1012.80 1012.78 1012.69 1012.54 1012.31 1011.96 1011.49 1010.89 1010.21 1009.49 1008.83 1008.29 1007.94 1007.81 1007.90 1008.16 1008.52 1008.93 1009.31 1009.62 1009.86 1010.06 1010.26 1010.52 1010.89 1011.38 1012.00 1012.69 1013.40 1014.07 1014.63 1015.06 1015.33 1015.49 1015.57 1015.63 1015.72 1015.90 1016.16
1011.32 1011.92 1012.29 1012.50 1012.60 1012.66 1012.70 1012.75 1012.78 1012.72 1012.54 1012.17 1011.62 1010.91 1010.10 1009.29 1008.58 1008.06 1007.77 1007.73 1007.89 1008.19 1008.55 1008.89 1009.16 1009.36 1009.52 1009.68 1009.92 1010.28 1010.80 1011.47 1012.25 1013.06 1013.84 1014.49 1014.99 1015.30 1015.46 1015.52 1015.54 1015.59 1015.72 1015.96
1011.35 1011.80 1012.04 1012.15 1012.21 1012.31 1012.46 1012.68 1012.91 1013.07 1013.06 1012.83 1012.34 1011.61 1010.72 1009.77 1008.89 1008.19 1007.74 1007.55 1007.59 1007.80 1008.10 1008.40 1008.63 1008.80 1008.93 1009.07 1009.29 1009.66 1010.20 1010.93 1011.77 1012.68 1013.54 1014.28 1014.85 1015.22 1015.40 1015.46 1015.47 1015.49 1015.60 1015.81
1011.12 1011.42 1011.54 1011.59 1011.66 1011.83 1012.14 1012.56 1013.01 1013.39 1013.58 1013.48 1013.06 1012.32 1011.35 1010.28 1009.23 1008.35 1007.72 1007.37 1007.29 1007.42 1007.65 1007.91 1008.13 1008.28 1008.40 1008.53 1008.74 1009.11 1009.66 1010.41 1011.29 1012.24 1013.16 1013.96 1014.59 1015.01 1015.24 1015.33 1015.35 1015.38 1015.48 1015.68
1010.71 1010.88 1010.92 1010.94 1011.05 1011.33 1011.81 1012.45 1013.13 1013.73 1014.10 1014.14 1013.77 1013.03 1011.99 1010.79 1009.59 1008.54 1007.74 1007.25 1007.05 1007.10 1007.28 1007.52 1007.74 1007.90 1008.03 1008.16 1008.36 1008.71 1009.24 1009.96 1010.82 1011.75 1012.68 1013.50 1014.17 1014.63 1014.91 1015.05 1015.12 1015.19 1015.31 1015.52
1010.24 1010.29 1010.28 1010.31 1010.50 1010.92 1011.57 1012.41 1013.31 1014.10 1014.63 1014.76 1014.45 1013.70 1012.60 1011.29 1009.96 1008.76 1007.82 1007.21 1006.92 1006.90 1007.06 1007.31 1007.55 1007.74 1007.88 1008.02 1008.21 1008.50 1008.97 1009.60 1010.37 1011.22 1012.09 1012.88 1013.54 1014.03 1014.37 1014.58 1014.73 1014.87 1015.06 1015.32
1009.79 1009.77 1009.73 1009.80 1010.08 1010.63 1011.45 1012.46 1013.52 1014.45 1015.09 1015.30 1015.02 1014.26 1013.11 1011.72 1010.29 1008.99 1007.95 1007.26 1006.91 1006.86 1007.03 1007.30 1007.58 1007.81 1007.99 1008.12 1008.27 1008.49 1008.84 1009.32 1009.94 1010.64 1011.38 1012.08 1012.70 1013.20 1013.59 1013.89 1014.14 1014.40 1014.69 1015.04
1009.44 1009.36 1009.33 1009.45 1009.81 1010.48 1011.41 1012.54 1013.70 1014.72 1015.42 1015.66 1015.40 1014.63 1013.46 1012.04 1010.56 1009.21 1008.12 1007.39 1007.03 1006.99 1007.18 1007.49 1007.82 1008.10 1008.30 1008.43 1008.52 1008.63 1008.82 1009.11 1009.52 1010.02 1010.58 1011.15 1011.69 1012.19 1012.63 1013.02 1013.40 1013.79 1014.22 1014.68
1009.18 1009.08 1009.07 1009.24 1009.68 1010.41 1011.41 1012.58 1013.77 1014.80 1015.50 1015.75 1015.49 1014.73 1013.57 1012.16 1010.71 1009.37 1008.31 1007.59 1007.25 1007.23 1007.46 1007.82 1008.20 1008.52 1008.73 1008.83 1008.85 1008.83 1008.84 1008.92 1009.09 1009.35 1009.71 1010.12 1010.58 1011.06 1011.55 1012.04 1012.57 1013.12 1013.70 1014.30
1008.98 1008.89 1008.91 1009.12 1009.60 1010.35 1011.35 1012.49 1013.64 1014.61 1015.27 1015.49 1015.23 1014.50 1013.40 1012.08 1010.70 1009.45 1008.46 1007.81 1007.52 1007.55 1007.82 1008.22 1008.63 1008.97 1009.17 1009.24 1009.17 1009.03 1008.85 1008.71 1008.65 1008.68 1008.84 1009.10 1009.47 1009.93 1010.47 1011.07 1011.74 1012.45 1013.19 1013.93
1008.80 1008.73 1008.79 1009.03 1009.51 1010.24 1011.17 1012.21 1013.24 1014.10 1014.67 1014.85 1014.60 1013.94 1012.95 1011.76 1010.53 1009.43 1008.56 1008.01 1007.79 1007.87 1008.17 1008.58 1009.00 1009.33 1009.52 1009.54 1009.40 1009.14 1008.81 1008.49 1008.23 1008.07 1008.05 1008.19 1008.48 1008.94 1009.53 1010.24 1011.03 1011.89 1012.77 1013.64
1008.59 1008.58 1008.68 1008.93 1009.39 1010.04 1010.84 1011.73 1012.59 1013.30 1013.76 1013.89 1013.66 1013.09 1012.24 1011.24 1010.22 1009.30 1008.60 1008.16 1008.02 1008.14 1008.45 1008.85 1009.25 1009.56 1009.72 1009.69 1009.49 1009.15 1008.72 1008.28 1007.87 1007.58 1007.44 1007.49 1007.75 1008.20 1008.84 1009.64 1010.55 1011.52 1012.51 1013.48
1008.38 1008.43 1008.57 1008.83 1009.23 1009.77 1010.41 1011.11 1011.76 1012.30 1012.63 1012.71 1012.51 1012.04 1011.38 1010.59 1009.79 1009.09 1008.56 1008.26 1008.19 1008.33 1008.63 1009.00 1009.35 1009.62 1009.74 1009.69 1009.46 1009.09 1008.62 1008.11 1007.65 1007.29 1007.10 1007.11 1007.35 1007.82 1008.50 1009.36 1010.35 1011.40 1012.47 1013.48
1008.21 1008.34 1008.52 1008.77 1009.10 1009.50 1009.96 1010.44 1010.88 1011.22 1011.42 1011.44 1011.27 1010.92 1010.44 1009.88 1009.32 1008.83 1008.47 1008.28 1008.27 1008.42 1008.69 1009.01 1009.31 1009.53 1009.63 1009.57 1009.35 1009.00 1008.55 1008.06 1007.61 1007.26 1007.07 1007.08 1007.33 1007.83 1008.55 1009.44 1010.47 1011.56 1012.64 1013.67
1008.17 1008.37 1008.58 1008.81 1009.06 1009.32 1009.58 1009.83 1010.04 1010.20 1010.27 1010.23 1010.09 1009.85 1009.53 1009.18 1008.84 1008.55 1008.35 1008.26 1008.30 1008.44 1008.66 1008.92 1009.16 1009.35 1009.44 1009.40 1009.23 1008.94 1008.57 1008.16 1007.79 1007.50 1007.36 1007.42 1007.71 1008.22 1008.96 1009.87 1010.90 1011.97 1013.04 1014.04
1008.33 1008.59 1008.82 1009.01 1009.16 1009.27 1009.34 1009.37 1009.37 1009.34 1009.28 1009.19 1009.06 1008.91 1008.74 1008.57 1008.41 1008.29 1008.22 1008.21 1008.27 1008.40 1008.57 1008.78 1008.97 1009.13 1009.22 1009.23 1009.14 1008.96 1008.71 1008.43 1008.18 1008.00 1007.96 1008.08 1008.41 1008.95 1009.68 1010.58 1011.58 1012.62 1013.64 1014.58
1008.72 1009.00 1009.23 1009.37 1009.42 1009.38 1009.27 1009.10 1008.91 1008.71 1008.53 1008.37 1008.25 1008.17 1008.11 1008.08 1008.07 1008.08 1008.10 1008.15 1008.23 1008.34 1008.47 1008.62 1008.78 1008.92 1009.04 1009.11 1009.12 1009.07 1008.97 1008.85 1008.74 1008.70 1008.76 1008.97 1009.34 1009.91 1010.64 1011.51 1012.46 1013.44 1014.39 1015.27
1009.32 1009.59 1009.78 1009.84 1009.79 1009.61 1009.33 1009.00 1008.64 1008.30 1008.02 1007.81 1007.69 1007.64 1007.67 1007.74 1007.83 1007.93 1008.03 1008.12 1008.20 1008.28 1008.38 1008.49 1008.62 1008.76 1008.91 1009.05 1009.16 1009.25 1009.30 1009.35 1009.40 1009.50 1009.68 1009.97 1010.41 1011.00 1011.72 1012.56 1013.47 1014.39 1015.27 1016.08
1010.03 1010.25 1010.36 1010.34 1010.17 1009.87 1009.46 1008.99 1008.51 1008.07 1007.72 1007.47 1007.35 1007.33 1007.41 1007.55 1007.72 1007.88 1008.02 1008.12 1008.20 1008.27 1008.33 1008.41 1008.53 1008.67 1008.85 1009.05 1009.26 1009.46 1009.66 1009.85 1010.05 1010.29 1010.59 1010.98 1011.48 1012.11 1012.84 1013.66 1014.53 1015.40 1016.24 1016.99
1010.73 1010.86 1010.87 1010.74 1010.46 1010.05 1009.55 1008.99 1008.44 1007.95 1007.56 1007.30 1007.19 1007.20 1007.32 1007.51 1007.72 1007.92 1008.09 1008.21 1008.28 1008.32 1008.36 1008.41 1008.51 1008.65 1008.84 1009.09 1009.37 1009.67 1009.98 1010.30 1010.64 1011.01 1011.42 1011.91 1012.49 1013.16 1013.92 1014.75 1015.60 1016.45 1017.25 1017.98
1011.29 1011.30 1011.20 1010.96 1010.58 1010.10 1009.54 1008.94 1008.37 1007.87 1007.50 1007.27 1007.18 1007.24 1007.40 1007.62 1007.86 1008.09 1008.26 1008.38 1008.44 1008.47 1008.48 1008.50 1008.57 1008.70 1008.89 1009.15 1009.47 1009.84 1010.24 1010.66 1011.11 1011.60 1012.13 1012.72 1013.39 1014.13 1014.93 1015.79 1016.65 1017.50 1018.29 1019.00
1011.63 1011.50 1011.28 1010.94 1010.50 1009.97 1009.40 1008.81 1008.28 1007.83 1007.51 1007.34 1007.31 1007.41 1007.61 1007.87 1008.13 1008.37 1008.56 1008.67 1008.72 1008.72 1008.70 1008.70 1008.73 1008.83 1009.01 1009.26 1009.59 1009.99 1010.44 1010.94 1011.49 1012.08 1012.72 1013.41 1014.17 1014.99 1015.86 1016.76 1017.65 1018.52 1019.32 1020.03
1011.69 1011.45 1011.12 1010.71 1010.23 1009.70 1009.16 1008.64 1008.18 1007.82 1007.59 1007.50 1007.55 1007.71 1007.95 1008.24 1008.53 1008.77 1008.96 1009.07 1009.11 1009.09 1009.05 1009.01 1009.01 1009.07 1009.22 1009.45 1009.77 1010.17 1010.66 1011.21 1011.82 1012.49 1013.23 1014.02 1014.88 1015.78 1016.71 1017.66 1018.60 1019.48 1020.30 1021.02
1011.52 1011.18 1010.78 1010.33 1009.86 1009.37 1008.90 1008.47 1008.13 1007.88 1007.76 1007.77 1007.89 1008.12 1008.40 1008.72 1009.02 1009.28 1009.46 1009.57 1009.61 1009.58 1009.52 1009.46 1009.43 1009.45 1009.56 1009.76 1010.05 1010.45 1010.94 1011.52 1012.19 1012.93 1013.74 1014.62 1015.55 1016.52 1017.52 1018.51 1019.47 1020.38 1021.20 1021.92
1011.17 1010.77 1010.35 1009.91 1009.47 1009.05 1008.68 1008.38 1008.16 1008.04 1008.03 1008.13 1008.33 1008.60 1008.92 1009.26 1009.57 1009.83 1010.03 1010.15 1010.19 1010.16 1010.10 1010.03 1009.99 1009.99 1010.06 1010.23 1010.51 1010.89 1011.38 1011.98 1012.68 1013.46 1014.33 1015.27 1016.25 1017.27 1018.30 1019.32 1020.29 1021.19 1022.01 1022.72
1010.71 1010.31 1009.90 1009.50 1009.14 1008.82 1008.57 1008.39 1008.30 1008.29 1008.38 1008.56 1008.81 1009.12 1009.46 1009.80 1010.12 1010.40 1010.61 1010.74 1010.80 1010.81 1010.77 1010.72 1010.69 1010.69 1010.76 1010.92 1011.17 1011.54 1012.03 1012.63 1013.34 1014.15 1015.04 1016.00 1017.01 1018.05 1019.08 1020.09 1021.04 1021.92 1022.70 1023.39
Thickness
5779 5763 5754 5757 5762 5763 5761 5756 5751 5763 5780 5775 5770 5771 5780 5787 5787 5785 5783 5781 5779 5777 5777 5773 5768 5763 5757 5750 5745 5741 5737 5734 5730 5726 5722 5720 5719 5719 5719 5720 5721 5722 5723 5723
5761 5755 5766 5770 5768 5763 5758 5750 5750 5763 5777 5772 5766 5767 5778 5782 5782 5783 5782 5780 5777 5775 5773 5770 5766 5762 5756 5750 5745 5740 5736 5733 5731 5728 5725 5723 5721 5719 5719 5720 5721 5722 5722 5722
5753 5763 5775 5767 5761 5756 5753 5748 5750 5753 5763 5766 5762 5757 5768 5778 5781 5782 5782 5781 5779 5776 5772 5768 5764 5760 5756 5750 5745 5741 5737 5733 5730 5727 5723 5720 5718 5716 5715 5717 5719 5720 5721 5721
5755 5767 5769 5762 5758 5756 5744 5761 5758 5755 5744 5736 5749 5728 5754 5765 5768 5773 5775 5775 5775 5775 5771 5767 5763 5760 5756 5753 5749 5743 5738 5734 5730 5727 5723 5720 5718 5716 5717 5718 5718 5718 5719 5720
5753 5765 5762 5757 5762 5762 5757 5767 5761 5754 5742 5732 5737 5727 5739 5757 5758 5766 5772 5774 5774 5772 5770 5766 5763 5760 5757 5754 5749 5744 5739 5734 5732 5728 5725 5721 5718 5717 5717 5717 5716 5716 5718 5719
5760 5771 5771 5769 5775 5773 5770 5759 5747 5733 5725 5716 5730 5725 5730 5746 5758 5766 5771 5773 5772 5770 5768 5764 5761 5759 5756 5753 5748 5743 5738 5734 5732 5728 5724 5721 5718 5716 5715 5715 5714 5715 5715 5717
5747 5759 5771 5776 5765 5766 5760 5732 5709 5710 5701 5707 5728 5725 5731 5761 5768 5769 5769 5770 5770 5768 5764 5761 5757 5754 5752 5749 5745 5741 5736 5733 5730 5726 5723 5721 5719 5717 5716 5715 5715 5714 5714 5714
5725 5731 5760 5769 5763 5752 5746 5735 5709 5700 5698 5706 5721 5720 5744 5769 5773 5774 5773 5771 5768 5765 5763 5759 5756 5753 5750 5746 5742 5739 5735 5731 5729 5725 5722 5721 5719 5718 5716 5716 5716 5715 5715 5715
5720 5728 5763 5773 5775 5763 5743 5733 5739 5713 5708 5704 5712 5727 5750 5769 5769 5770 5769 5767 5765 5763 5762 5759 5756 5752 5749 5745 5741 5737 5734 5731 5728 5726 5722 5720 5719 5718 5716 5715 5715 5714 5714 5714
5736 5731 5753 5768 5771 5766 5759 5741 5721 5709 5695 5695 5711 5720 5730 5755 5761 5765 5764 5763 5762 5762 5759 5758 5755 5753 5749 5745 5741 5737 5734 5731 5729 5726 5723 5721 5719 5718 5716 5715 5713 5713 5713 5713
5741 5730 5738 5749 5751 5749 5745 5737 5724 5709 5709 5696 5697 5715 5752 5757 5763 5763 5764 5764 5762 5759 5758 5757 5755 5753 5749 5745 5741 5737 5734 5731 5728 5726 5724 5721 5719 5717 5715 5714 5713 5713 5712 5711
5737 5724 5717 5734 5753 5760 5754 5743 5728 5717 5709 5704 5702 5719 5764 5763 5765 5765 5764 5763 5761 5760 5758 5757 5754 5751 5747 5744 5741 5738 5735 5732 5729 5728 5725 5721 5718 5716 5714 5712 5712 5712 5711 5710
5734 5718 5706 5714 5729 5746 5746 5742 5734 5723 5708 5699 5703 5726 5762 5762 5763 5764 5763 5761 5760 5758 5756 5754 5752 5749 5746 5744 5741 5738 5735 5732 5730 5727 5724 5720 5717 5715 5713 5711 5711 5710 5709 5707
5738 5715 5711 5707 5716 5732 5738 5739 5734 5726 5709 5706 5716 5732 5751 5755 5757 5759 5760 5759 5758 5757 5756 5753 5750 5747 5745 5743 5740 5737 5735 5733 5730 5726 5722 5719 5716 5714 5711 5709 5708 5707 5706 5704
5730 5713 5717 5723 5733 5736 5737 5738 5736 5733 5726 5720 5728 5733 5745 5751 5754 5756 5758 5757 5756 5755 5753 5751 5748 5746 5743 5741 5738 5735 5734 5732 5729 5724 5721 5718 5715 5712 5709 5706 5704 5703 5702 5701
5715 5710 5713 5716 5727 5731 5728 5732 5733 5733 5732 5731 5733 5734 5748 5751 5753 5753 5753 5754 5753 5752 5751 5750 5748 5745 5742 5739 5737 5734 5731 5729 5726 5723 5719 5716 5713 5708 5705 5702 5700 5698 5697 5695
5699 5701 5695 5695 5711 5718 5707 5721 5724 5725 5728 5730 5726 5734 5742 5743 5745 5746 5747 5749 5750 5750 5748 5746 5745 5743 5741 5739 5736 5732 5729 5727 5723 5720 5716 5713 5710 5706 5702 5699 5696 5693 5691 5689
5692 5686 5678 5681 5694 5684 5702 5725 5727 5722 5722 5726 5729 5732 5734 5736 5737 5740 5743 5744 5744 5745 5744 5743 5741 5740 5738 5737 5734 5730 5726 5723 5720 5716 5712 5709 5705 5701 5697 5694 5691 5688 5685 5682
5687 5681 5669 5665 5669 5680 5700 5715 5717 5713 5711 5720 5721 5723 5726 5730 5732 5733 5737 5738 5738 5739 5740 5739 5737 5735 5734 5732 5730 5726 5722 5719 5716 5712 5709 5705 5701 5697 5693 5689 5685 5682 5679 5674
5671 5672 5663 5657 5662 5662 5688 5709 5716 5710 5698 5715 5716 5716 5718 5721 5714 5719 5727 5730 5731 5732 5733 5732 5730 5729 5726 5725 5724 5721 5717 5714 5710 5708 5705 5701 5696 5692 5687 5683 5678 5674 5670 5666
5654 5652 5651 5651 5655 5665 5688 5699 5705 5686 5692 5709 5710 5711 5711 5710 5711 5715 5718 5720 5721 5723 5724 5724 5722 5720 5718 5718 5716 5713 5710 5708 5706 5703 5699 5694 5690 5685 5680 5675 5671 5666 5661 5656
5641 5640 5640 5640 5645 5655 5683 5688 5685 5687 5698 5702 5703 5704 5703 5703 5705 5708 5708 5709 5711 5712 5713 5712 5710 5709 5709 5710 5708 5705 5701 5700 5698 5695 5691 5686 5681 5676 5670 5666 5661 5656 5651 5646
5634 5638 5637 5641 5647 5661 5671 5676 5682 5685 5688 5693 5695 5696 5696 5696 5696 5697 5697 5698 5700 5700 5700 5700 5700 5698 5697 5697 5698 5694 5690 5688 5687 5684 5679 5675 5670 5666 5660 5656 5650 5645 5640 5636
5631 5634 5634 5638 5647 5655 5663 5669 5674 5678 5681 5685 5688 5689 5689 5688 5688 5686 5686 5687 5687 5687 5687 5688 5688 5686 5684 5683 5683 5682 5680 5678 5676 5671 5666 5662 5657 5652 5647 5642 5638 5633 5628 5624
5625 5628 5627 5631 5641 5648 5656 5660 5664 5670 5673 5676 5678 5679 5679 5679 5678 5677 5676 5676 5676 5675 5675 5675 5675 5673 5671 5671 5669 5669 5668 5667 5663 5658 5653 5648 5643 5637 5631 5625 5620 5617 5613 5612
5616 5620 5622 5626 5635 5639 5645 5652 5656 5659 5662 5665 5666 5668 5670 5670 5669 5668 5666 5665 5665 5664 5663 5661 5661 5659 5658 5657 5656 5655 5654 5653 5650 5644 5637 5632 5627 5622 5616 5611 5602 5597 5595 5593